User: anonymous   Login
Location: Unspecified
(0.0000°N, 0.0000°E)
Time: 07:10:33
(UTC+00:00)
Language:

ANTELSAT - Orbit

View from above orbital plane
View from above orbital plane
View from above satellite
View from above satellite

Ground track
Ground track

The orbit data is extracted from the following two-line orbital elements,

1 40034U 14033AA  17178.67197907 +.00000183 +00000-0 +35100-4 0  9997
2 40034 097.8581 062.2791 0057559 259.1126 100.3602 14.73702386161938
Epoch (UTC): 27 June 2017 16:07:38
Eccentricity: 0.0057559
inclination: 97.8581°
perigee height: 609 km
apogee height: 690 km
right ascension of ascending node: 62.2791°
argument of perigee: 259.1126°
revolutions per day: 14.73702386
mean anomaly at epoch: 100.3602°
orbit number at epoch: 16193

The dashed part of the orbit path shows where the satellite is in the earth's shadow,  

DLR